Regional Weather Roundup
Issued by NWS Sterling, VA

Home | Current Version | Previous Version | Text Only | Print | Product List | Glossary Off
Versions: 1 2 3 4 5 6 7 8 9 10 11 12 13 14 15 16 17 18 19 20 21 22 23 24 25 26 27 28 29 30 31 32 33 34 35 36 37 38 39 40 41 42 43 44 45 46 47 48 49 50

000
ASUS41 KLWX 011710
RWRLWX

REGIONAL WEATHER ROUNDUP
NATIONAL WEATHER SERVICE BALTIMORE MD/WASHINGTON DC
100 PM EDT WED OCT 01 2014

Note: "FAIR" indicates few or no clouds below 12,000 feet
with no significant weather and/or obstructions to visibility.
 TC=TEMPERATURE CELSIUS

 * =Non NWS site. Station does not report precipitation (e.g. rain,
    snow, etc.), thunder, or fog.

DCZ001-MDZ009-015-VAZ040>042-051-053>054-011800-
WASHINGTON METRO

CITY           SKY/WX    TMP DP  RH WIND       PRES   REMARKS
WASHINGTON NAT CLOUDY    73  61  65 NE5       30.04F
DULLES         PTSUNNY   68  61  78 NE8       30.04F
ANDREWS AFB    CLOUDY    70  61  74 N6        30.03F
QUANTICO       MOSUNNY   73  61  65 N9        30.04S
COLLEGE PARK*  CLOUDY    70  61  73 N5        30.04F
LEESBURG*      PTSUNNY   68  64  88 NE8       30.06S
GAITHERSBURG*  CLOUDY    66  63  88 E3        30.09S

$$

MDZ006>007-011-014-011800-
BALTIMORE METRO

CITY           SKY/WX    TMP DP  RH WIND       PRES   REMARKS
BWI AIRPORT    CLOUDY    69  59  70 CALM      30.04S
MD SCIENCE CTR   N/A     70  58  65 MISG      30.04F
MARTIN STATE   PTSUNNY   72  63  73 CALM      30.05S
ANNAPOLIS      CLOUDY    68  60  75 MISG      30.04S
FORT MEADE*    CLOUDY    68  59  73 NE3       30.06F

$$

MDZ012-015-019>023-011800-
MARYLAND EASTERN SHORE

CITY           SKY/WX    TMP DP  RH WIND       PRES   REMARKS
OCEAN CITY     CLOUDY    70  62  76 NE14      30.01S
SALISBURY      CLOUDY    73  63  68 N9        30.00F
BAY BRIDGE AP*   N/A     70  59  68 E3        30.04S
CAMBRIDGE*     CLOUDY    72  61  68 NE5       30.02S
EASTON*        CLOUDY    72  63  73 CALM      30.06S

$$

MDZ017>025-011800-
SOUTHERN MARYLAND

CITY           SKY/WX    TMP DP  RH WIND       PRES   REMARKS
PATUXENT RIVER MOSUNNY   72  59  63 N9        30.02F
ST INIGOES     PTSUNNY   71  58  63 NE7       30.01F
LEONARDTOWN*   PTSUNNY   70  59  68 N6        30.04S

$$

MDZ003>005-011800-
NORTH CENTRAL MARYLAND

CITY           SKY/WX    TMP DP  RH WIND       PRES   REMARKS
FREDERICK*     CLOUDY    72  64  78 MISG      30.08F FOG
HAGERSTOWN APT LGT RAIN  66  59  78 N3        30.06S
WESTMINSTER*   PTSUNNY   66  63  88 NE8       30.06F

$$

MDZ501>502-011800-
WESTERN MARYLAND

CITY           SKY/WX    TMP DP  RH WIND       PRES   REMARKS
OAKLAND*       CLOUDY    59 N/A N/A SE6       30.07F
CUMBERLAND*    PTSUNNY   66  59  77 CALM      30.09F

$$

VAZ025>031-011800-
SHENANDOAH VALLEY

CITY           SKY/WX    TMP DP  RH WIND       PRES   REMARKS
WINCHESTER*    CLOUDY    66  63  88 NE3       30.05F
STAUNTON*      CLOUDY    72  57  60 CALM      30.05F

$$

WVZ021-048>050-054>055-011800-
EASTERN WEST VIRGINIA PANHANDLE

CITY           SKY/WX    TMP DP  RH WIND       PRES   REMARKS
MARTINSBURG    CLOUDY    67  59  75 NE3       30.06S
PETERSBURG*    CLOUDY   N/A N/A N/A W3        30.05F

$$

VAZ036>039-050-011800-
CENTRAL FOOTHILLS

CITY           SKY/WX    TMP DP  RH WIND       PRES   REMARKS
CHARLOTTESVILL CLOUDY    69  63  81 NE5       30.04F
ORANGE*        CLOUDY    68  63  83 CALM      30.05F

$$

VAZ055>057-011800-
NORTH AND CENTRAL PIEDMONT

CITY           SKY/WX    TMP DP  RH WIND       PRES   REMARKS
FREDERICKSBRG* PTSUNNY   73  62  69 CALM      30.02F
STAFFORD*      PTSUNNY   71  61  71 CALM      30.07F

$$

NCZ024-NYZ072-PAZ021-071-VAZ022-071-011800-
OTHER REGIONAL OBSERVATIONS

CITY           SKY/WX    TMP DP  RH WIND       PRES   REMARKS
NEW YORK CITY  CLOUDY    63  58  83 N8        30.07F HAZE
PHILADELPHIA   PTSUNNY   71  57  61 NE10      30.03F
PITTSBURGH     CLOUDY    61  55  81 CALM      30.05F
ROANOKE        MOSUNNY   73  59  61 SE7       30.06F
RICHMOND       PTSUNNY   78  62  57 NE6       30.01F
RALEIGH        CLOUDY    73  62  68 CALM      30.04S

$$

ANZ530>537-011800-
MARINE OBSERVATIONS

STATION/POSITION TIME  TEMP    WIND        PRES
                       AIR SEA DIR/SP/G
                 (UTC) (F)     (DEG/KT/KT) (MB)
THOMAS PT LIGHT  1700   67 72   10/  9/ 10 1018.0F
BALT KEY BRIDGE  1700   69      80/  4/  5 1017.1S
COVE POINT       1700   66      10/  7/  9 1016.8F
LEWISETTA        1700   68 72   80/  3/  5 1016.1F
SOLOMONS ISLAND  1700      72                N/A
PINEY POINT      1700          160/  6/  7   N/A

$$




USA.gov is the U.S. government's official web portal to all federal, state and local government web resources and services.